Home   Weather   Dudley   Past weeks
Flag for United Kingdom

Past Weather in Dudley, England, United Kingdom — Yesterday and Last 2 Weeks

Now
36 °F

Light rain. Low clouds.


Feels Like: 32 °F
Forecast: 42 / 34 °F
Wind: 5 mph from Northwest

Location: Birmingham / Airport

Current Time: Feb 27, 2020 at 6:55:34 am

Latest Report: Feb 27, 2020 at 6:20 am


Visibility: 3 mi

Pressure: 29.45 "Hg

Humidity: 93%

Dew Point: 34 °F

Location of DudleyLocation

Past Weather in Dudley — Graph

°F

Dudley Temperature Yesterday

Maximum temperature yesterday: 45 °F (at 1:50 pm)
Minimum temperature yesterday: 36 °F (at 12:20 am)
Average temperature yesterday: 39 °F

High & Low Weather Summary for the Past Weeks

 TemperatureHumidityPressure
High55 °F (Feb 15, 8:20 pm)100% (Feb 13, 12:50 am)30.21 "Hg (Feb 13, 12:50 am)
Low34 °F (Feb 14, 6:20 am)34% (Feb 23, 4:20 pm)29.09 "Hg (Feb 16, 2:50 am)
Average44 °F81%29.74 "Hg
* Reported Feb 12 5:20 am — Feb 27 5:20 am, Dudley. Weather by CustomWeather, © 2020

Note: Actual official high and low records may vary slightly from our data, if they occured in-between our weather recording intervals... More about our weather records

Dudley Weather History for the Previous 24 Hours

Scroll right to see more
 ConditionsComfort  
Time TempWeatherWind HumidityBarometerVisibility
5:20 am
Thu, Feb 27
36 °FLight rain. Partly cloudy.2 mph100%29.45 "Hg6 mi
4:50 am36 °FLight rain. Passing clouds.3 mph100%29.45 "HgN/A
4:20 am36 °FLight rain. Passing clouds.5 mph100%29.45 "Hg6 mi
3:50 am36 °FLight rain. Passing clouds.3 mph93%29.47 "Hg6 mi
3:20 am36 °FLight rain. Partly cloudy.3 mph93%29.47 "Hg6 mi
2:50 am37 °FLight rain. Passing clouds.3 mph87%29.50 "HgN/A
2:20 am37 °FLight rain. Passing clouds.6 mph87%29.50 "HgN/A
1:50 am37 °FLight rain. Passing clouds.6 mph81%29.53 "HgN/A
1:20 am37 °FClear.7 mph81%29.56 "Hg10 mi
12:50 am37 °FPassing clouds.7 mph81%29.56 "HgN/A
12:20 am37 °FPassing clouds.6 mph81%29.59 "HgN/A
11:50 pm
Wed, Feb 26
37 °FClear.7 mph75%29.59 "Hg10 mi
11:20 pm37 °FClear.7 mph75%29.62 "Hg10 mi
10:50 pm37 °FPassing clouds.7 mph75%29.65 "HgN/A
10:20 pm37 °FPassing clouds.5 mph70%29.65 "HgN/A
9:50 pm37 °FPassing clouds.5 mph70%29.68 "HgN/A
9:20 pm37 °FClear.7 mph75%29.68 "Hg10 mi
8:50 pm37 °FClear.7 mph75%29.68 "Hg10 mi
8:20 pm37 °FClear.7 mph75%29.71 "Hg10 mi
7:50 pm37 °FPassing clouds.6 mph75%29.71 "HgN/A
7:20 pm39 °FPassing clouds.5 mph70%29.74 "HgN/A
6:50 pm39 °FPassing clouds.6 mph70%29.74 "HgN/A
6:20 pm39 °FClear.7 mph70%29.74 "Hg10 mi
5:50 pm41 °FPassing clouds.9 mph66%29.74 "HgN/A
5:20 pm41 °FPassing clouds.8 mph66%29.71 "HgN/A
4:50 pm43 °FPassing clouds.14 mph57%29.71 "HgN/A
4:20 pm43 °FPassing clouds.13 mph53%29.71 "HgN/A
3:50 pm45 °FScattered clouds.14 mph49%29.71 "HgN/A
3:20 pm43 °FScattered clouds.13 mph53%29.71 "HgN/A
2:50 pm45 °FScattered clouds.18 mph53%29.71 "HgN/A
2:20 pm45 °FScattered clouds.21 mph49%29.68 "HgN/A
1:50 pm45 °FBroken clouds.16 mph57%29.68 "HgN/A
1:20 pm43 °FBroken clouds.18 mph66%29.68 "HgN/A
12:50 pm41 °FPartly sunny.15 mph76%29.68 "HgN/A
12:20 pm41 °FScattered showers. Broken clouds.15 mph81%29.68 "HgN/A
11:50 am41 °FSprinkles. Partly sunny.14 mph70%29.65 "HgN/A
11:20 am41 °FBroken clouds.15 mph76%29.65 "HgN/A
10:50 am41 °FBroken clouds.13 mph70%29.62 "HgN/A
10:20 am41 °FScattered clouds.13 mph70%29.62 "HgN/A
9:50 am41 °FBroken clouds.14 mph70%29.62 "HgN/A
9:20 am39 °FScattered clouds.12 mph75%29.59 "HgN/A
8:50 am37 °FPartly sunny.9 mph81%29.59 "HgN/A
8:20 am37 °FScattered showers. Scattered clouds.10 mph81%29.56 "HgN/A
7:50 am36 °FScattered clouds.7 mph87%29.56 "HgN/A
7:20 am36 °FScattered clouds.8 mph87%29.53 "HgN/A
6:50 am36 °FPassing clouds.8 mph87%29.53 "HgN/A
6:20 am36 °FPassing clouds.8 mph81%29.50 "HgN/A
Weather by CustomWeather, © 2020

See weather overview

Advertising